(246825) = 2003 UU363 = 2006 FP48 = 2009 TK43

Discovered at Mount Lemmon on 2009-10-14 by Mt. Lemmon Survey.

Orbit

Orbit type: Main Belt

Note: WebGL enabled browser required.

epoch2023-02-25.0
epoch JD2460000.5
perihelion date2018-01-11.33403
perihelion JD2458129.83403
argument of perihelion (°)119.21071
ascending node (°)88.40532
inclination (°)6.65426
eccentricity0.0614286
perihelion distance (AU)2.9876964
Tisserand w.r.t. Jupiter3.2
ΔV w.r.t. Earth (km/sec)10.9
semimajor axis (AU)3.1832383
mean anomaly (°)324.63576
mean daily motion (°/day)0.17354020
aphelion distance (AU)3.379
period (years)5.68
P-vector [x]-0.88019635
P-vector [y]-0.46567526
P-vector [z]-0.09165662
Q-vector [x]0.46025768
Q-vector [y]-0.79037829
Q-vector [z]-0.40430808
absolute magnitude15.52
phase slope0.15
uncertainty0
referenceMPO 745323
observations used439
oppositions17
arc length (days)11106
first opposition used1992
last opposition used2023
residual rms (arc-secs)0.75
perturbers coarse indicatorM-v
perturbers precise indicator003Ek
first observation date used1992-11-18.0
last observation date used2023-04-16.0
computer nameMPCLINUX
JD of orbit computation2456937.518345
perihelion JD uncertainty (days)2.1524E-04
argument of perihelion uncertainty (°)6.3354E-05
ascending node uncertainty (°)5.1435E-05
inclination uncertainty (°)4.2943E-06
eccentricity uncertainty 5.5337E-08
perihelion distance uncertainty (AU)1.7239E-07
Minimum Orbit Intersection Distances (in AU)
for orbit epoch: 2460000.5, reference: E2023-H35
Mercury2.54588
Venus2.26698
Earth1.98963
Mars1.37047
Jupiter1.61173
Saturn5.76203
Uranus15.412
Neptune26.483

Observations

448 total observations over interval: 1992 11 18.29786 – 2023 04 16.284365
These data are available for download (format description).

Date (UT) J2000 RA J2000 Dec Magn Location Ref
1992 11 18.29786 03 21 54.53 +12 46 13.1 20.8 V 691 – Steward Observatory, Kitt Peak-Spacewatch MPS 308734
1992 11 18.32390 03 21 53.26 +12 46 10.5   691 – Steward Observatory, Kitt Peak-Spacewatch MPS 308734
1992 11 18.35093 03 21 51.88 +12 46 07.8   691 – Steward Observatory, Kitt Peak-Spacewatch MPS 308734
1995 03 28.30673 13 57 19.72 -02 26 30.7 19.9 V 691 – Steward Observatory, Kitt Peak-Spacewatch MPS 308734
1995 03 28.32795 13 57 18.91 -02 26 26.0   691 – Steward Observatory, Kitt Peak-Spacewatch MPS 308734
1995 03 28.34920 13 57 18.13 -02 26 21.6   691 – Steward Observatory, Kitt Peak-Spacewatch MPS 308734
1995 04 02.26030 13 54 11.35 -02 06 31.7 19.6 V 691 – Steward Observatory, Kitt Peak-Spacewatch MPS 308734
1995 04 02.34466 13 54 07.92 -02 06 10.8   691 – Steward Observatory, Kitt Peak-Spacewatch MPS 308734
1995 04 02.43039 13 54 04.39 -02 05 50.3   691 – Steward Observatory, Kitt Peak-Spacewatch MPS 308734
2003 10 20.34975 01 51 54.22 +02 36 27.2 20.8 V 691 – Steward Observatory, Kitt Peak-Spacewatch MPS 212584
2003 10 20.37777 01 51 52.93 +02 36 21.2 20.8 V 691 – Steward Observatory, Kitt Peak-Spacewatch MPS 212584
2003 10 20.40620 01 51 51.61 +02 36 15.4 20.9 V 691 – Steward Observatory, Kitt Peak-Spacewatch MPS 212584
2003 10 26.25640 01 47 26.07 +02 16 54.8 21.0 V 291 – LPL/Spacewatch II MPS 212584
2003 10 26.26031 01 47 25.89 +02 16 53.9 21.4 V 291 – LPL/Spacewatch II MPS 212584
2003 10 26.26491 01 47 25.62 +02 16 53.0 21.4 V 291 – LPL/Spacewatch II MPS 212584
2003 11 19.14160 01 31 48.32 +01 31 24.6 19.8   644 – Palomar Mountain/NEAT MPS 308734
2003 11 19.16285 01 31 47.62 +01 31 23.6 19.5   644 – Palomar Mountain/NEAT MPS 308734
2003 11 19.18376 01 31 47.01 +01 31 23.0 20.0   644 – Palomar Mountain/NEAT MPS 308734
2004 12 20.29401 06 26 38.07 +24 10 30.5 20.4 V 691 – Steward Observatory, Kitt Peak-Spacewatch MPS 308734
2004 12 20.32084 06 26 36.61 +24 10 34.2 20.4 V 691 – Steward Observatory, Kitt Peak-Spacewatch MPS 308734
2004 12 20.34428 06 26 35.33 +24 10 36.7 21.0 V 691 – Steward Observatory, Kitt Peak-Spacewatch MPS 308734
2006 01 06.513256 12 05 46.438 +07 25 46.69 21.53 V 645 – Apache Point-Sloan Digital Sky Survey MPS 390410
2006 01 06.516728 12 05 46.525 +07 25 46.64 22.15   645 – Apache Point-Sloan Digital Sky Survey MPS 390410
2006 03 03.34383 11 57 31.86 +10 48 57.5 19.7 V 703 – Catalina Sky Survey MPS 308734
2006 03 03.35157 11 57 31.53 +10 49 00.8 19.7 V 703 – Catalina Sky Survey MPS 308734
2006 03 03.35904 11 57 31.28 +10 49 02.8 19.3 V 703 – Catalina Sky Survey MPS 308734
2006 03 03.36675 11 57 30.99 +10 49 05.6 20.1 V 703 – Catalina Sky Survey MPS 308734
2006 03 24.34499 11 42 13.02 +12 34 46.9 19.3 R 699 – Lowell Observatory-LONEOS MPS 168877
2006 03 24.36693 11 42 11.94 +12 34 50.7   699 – Lowell Observatory-LONEOS MPS 168877
2006 03 24.38886 11 42 10.86 +12 34 58.6   699 – Lowell Observatory-LONEOS MPS 168877
2006 03 24.41077 11 42 09.97 +12 35 03.8   699 – Lowell Observatory-LONEOS MPS 168877
2006 04 02.25209 11 36 00.68 +13 05 05.7 19.7 V 703 – Catalina Sky Survey MPS 168877
2006 04 02.26061 11 36 00.36 +13 05 06.9 19.1 V 703 – Catalina Sky Survey MPS 168877
2006 04 02.26910 11 35 59.96 +13 05 08.9 20.4 V 703 – Catalina Sky Survey MPS 168877
2006 04 02.27762 11 35 59.74 +13 05 07.9 20.2 V 703 – Catalina Sky Survey MPS 168877
2009 10 14.36759 03 27 36.50 +12 15 04.1 20.8 V G96 – Mt. Lemmon Survey MPS 306768
2009 10 14.37438 03 27 36.28 +12 15 02.8 20.6 V G96 – Mt. Lemmon Survey MPS 306768
2009 10 14.38132 03 27 36.07 +12 15 02.7 21.9 V G96 – Mt. Lemmon Survey MPS 306768
2009 10 14.38825 03 27 35.85 +12 15 01.1 20.5 V G96 – Mt. Lemmon Survey MPS 306768
2009 10 25.37691 03 20 43.83 +11 50 18.4 20.2 V 703 – Catalina Sky Survey MPS 306768
2009 10 25.38487 03 20 43.51 +11 50 15.9 19.7 V 703 – Catalina Sky Survey MPS 306768
2009 10 25.39272 03 20 43.15 +11 50 16.1 20.5 V 703 – Catalina Sky Survey MPS 306768
2009 10 25.40068 03 20 42.64 +11 50 14.9 19.7 V 703 – Catalina Sky Survey MPS 306768
2009 11 09.25724 03 09 19.11 +11 16 05.5 19.9 V 703 – Catalina Sky Survey MPS 306768
2009 11 09.26589 03 09 18.61 +11 16 03.7 19.3 V 703 – Catalina Sky Survey MPS 306768
2009 11 09.27450 03 09 18.10 +11 16 03.0 20.1 V 703 – Catalina Sky Survey MPS 306768
2009 11 09.28314 03 09 17.78 +11 16 00.8 19.1 V 703 – Catalina Sky Survey MPS 306768
2009 11 19.29256 03 01 17.22 +10 56 30.9 19.7 V G96 – Mt. Lemmon Survey MPS 306768
2009 11 19.29919 03 01 16.89 +10 56 30.0 19.6 V G96 – Mt. Lemmon Survey MPS 306768
2009 11 19.30567 03 01 16.57 +10 56 29.4 19.7 V G96 – Mt. Lemmon Survey MPS 306768
2009 11 19.31219 03 01 16.24 +10 56 28.8 19.6 V G96 – Mt. Lemmon Survey MPS 306768
2010 01 28.49314 02 46 42.71 +12 30 59.9   C51 – WISE MPS 335063
2010 01 28.625443 02 46 46.41 +12 31 33.6   C51 – WISE MPS 335063
2010 01 28.757748 02 46 50.18 +12 32 07.3   C51 – WISE MPS 335063
2010 01 28.890052 02 46 53.92 +12 32 41.3   C51 – WISE MPS 335063
2010 01 28.95627 02 46 55.80 +12 32 58.7   C51 – WISE MPS 335063
2010 01 29.022484 02 46 57.70 +12 33 14.2   C51 – WISE MPS 343692
2010 01 29.088572 02 46 59.56 +12 33 31.4   C51 – WISE MPS 343692
2010 01 29.15479 02 47 01.45 +12 33 47.9   C51 – WISE MPS 343692
2010 01 29.220876 02 47 03.40 +12 34 04.8   C51 – WISE MPS 343692
2010 01 29.221003 02 47 03.37 +12 34 05.5   C51 – WISE MPS 343692
2010 01 29.353308 02 47 07.22 +12 34 39.2   C51 – WISE MPS 343692
2010 01 29.48561 02 47 10.99 +12 35 13.2   C51 – WISE MPS 343692
2010 01 29.617917 02 47 14.84 +12 35 47.0   C51 – WISE MPS 343692
2011 01 05.28873 08 15 04.14 +24 16 10.4 20.1 V 703 – Catalina Sky Survey MPS 365302
2011 01 05.29701 08 15 03.74 +24 16 11.1 20.6 V 703 – Catalina Sky Survey MPS 365302
2011 01 05.30532 08 15 03.38 +24 16 14.3 20.1 V 703 – Catalina Sky Survey MPS 365302
2011 01 05.31360 08 15 03.09 +24 16 15.8 20.2 V 703 – Catalina Sky Survey MPS 365302
2011 01 10.19376 08 11 11.35 +24 37 45.5 19.9 V 691 – Steward Observatory, Kitt Peak-Spacewatch MPS 366746
2011 01 10.21152 08 11 10.43 +24 37 50.1 20.0 V 691 – Steward Observatory, Kitt Peak-Spacewatch MPS 366746
2011 01 10.22927 08 11 09.58 +24 37 55.0 20.0 V 691 – Steward Observatory, Kitt Peak-Spacewatch MPS 366746
2011 01 10.26690 08 11 07.65 +24 38 05.1 19.7 V G96 – Mt. Lemmon Survey MPS 366746
2011 01 10.27389 08 11 07.33 +24 38 07.1 19.7 V G96 – Mt. Lemmon Survey MPS 366746
2011 01 10.28088 08 11 06.93 +24 38 08.8 19.6 V G96 – Mt. Lemmon Survey MPS 366746
2011 01 10.28785 08 11 06.61 +24 38 10.9 19.9 V G96 – Mt. Lemmon Survey MPS 366746
2011 01 14.17999 08 07 51.85 +24 54 58.4 19.9 V 691 – Steward Observatory, Kitt Peak-Spacewatch MPS 368438
2011 01 14.19951 08 07 50.68 +24 55 03.1 20.5 V 691 – Steward Observatory, Kitt Peak-Spacewatch MPS 368438
2011 01 14.21900 08 07 49.67 +24 55 07.6 20.3 V 691 – Steward Observatory, Kitt Peak-Spacewatch MPS 368439
2011 01 29.20064 07 54 57.34 +25 52 32.7 20.3 V G96 – Mt. Lemmon Survey MPS 369381
2011 01 29.20763 07 54 56.98 +25 52 33.6 20.3 V G96 – Mt. Lemmon Survey MPS 369381
2011 01 29.21468 07 54 56.62 +25 52 35.4 20.1 V G96 – Mt. Lemmon Survey MPS 369381
2011 01 29.22171 07 54 56.26 +25 52 36.8 20.2 V G96 – Mt. Lemmon Survey MPS 369381
2011 01 30.29249 07 54 03.051 +25 56 06.69 20.1 w F51 – Pan-STARRS 1, Haleakala MPS 379610
2011 01 30.30703 07 54 02.358 +25 56 09.31 21.3 w F51 – Pan-STARRS 1, Haleakala MPS 379610
2011 01 30.32212 07 54 01.540 +25 56 12.54 20.2 w F51 – Pan-STARRS 1, Haleakala MPS 379610
2011 01 30.33651 07 54 00.807 +25 56 15.36 20.1 w F51 – Pan-STARRS 1, Haleakala MPS 379610
2012 03 16.33315 13 50 42.90 -01 44 25.4 20.1 V 703 – Catalina Sky Survey MPS 417065
2012 03 16.34186 13 50 42.61 -01 44 23.4 19.7 V 703 – Catalina Sky Survey MPS 417065
2012 03 16.35045 13 50 42.32 -01 44 21.8 19.8 V 703 – Catalina Sky Survey MPS 417065
2012 03 16.35905 13 50 42.07 -01 44 19.5 20.2 V 703 – Catalina Sky Survey MPS 417065
2012 03 30.33341 13 42 45.07 -00 46 15.4 19.4 V 703 – Catalina Sky Survey MPS 420069
2012 03 30.34026 13 42 44.82 -00 46 14.4 19.3 V 703 – Catalina Sky Survey MPS 420069
2012 03 30.34716 13 42 44.60 -00 46 12.9 20.3 V 703 – Catalina Sky Survey MPS 420069
